Showing default

COSMOS 2598, 66648

Orbit data source: Space-Track

COSMOS 2598, 66648 is a payload satellite owned by VVKO VKS (CIS) in LEO that was launched on Tue, 25 Nov 2025 UTC via an ANGARA-1.2 launch vehicle from the Plesetsk Missile And Space Complex (PKMTR). Payload-class satellites include a variety of spacecraft equipped with specific instruments for various scientific and technological missions. These include communications satellites like Starlink; space stations such as the ISS; scientific satellites like the Hubble; Earth observation satellites from companies like Planet Labs, Umbra, and HawkEye 360; GPS; miniature CubeSats for education and research; and military/defense satellites.

Loading next visibility...
Identifier
66648, 2025-273B
Orbit
LEO
Country
Flag of CISCIS
Related business
Manufacturer
Resehetnev ISS
Mission
Operational Defense Communications
Bus & Motor
STRELA-3M, Unknown motor
Mass
280 kg wet, 280 kg dry
Launch date (UTC)
2025-11-25 (7 months ago)
Launch vehicle
ANGARA-1.2
Launch site
Plesetsk Missile And Space Complex (PKMTR)
Object type
Payload
Rocket body
Debris
Shape & HBR
Cyl + 1 Ant, 1.1 m
Radar Cross Section
1.583 m², Large (>1 m²)

Expand to show TLE details & history
Last TLE update: 11 hours ago

TLE from 11 hours ago
0 COSMOS 2598
1 66648U 25273B   26171.42954559  .00000018  00000-0  60418-4 0  9991
2 66648  82.5024 168.5353 0011029 171.6428 188.4838 12.42880266 25709
Epoch: 2026-06-20T10:18Z
TLE epoch observation values (Epoch: 2026-06-20T10:18:32.738Z)
Latitude
0.00002°
Longitude
105.2546°
Altitude
1,505.706 km
Speed
7.108 km/s
True Right ascension
11h 14m 08s
True Declination
0° 00' 00"
Sunlit
Object was in daylight at epoch
Visualization orbit readout
Latitude
Unknown
Longitude
Unknown
Altitude
Unknown
Speed
Unknown
Apparent Right ascension
Unknown
Apparent Declination
Unknown
Sunlit
N/A
Visualization observer readout
Local Sidereal Time
08:33:34
Azimuth
Unknown
Elevation
Unknown
Doppler factor
Unknown
Orbital elements
Apogee altitude
1,500.448 km
Perigee altitude
1,483.088 km
Semi-major axis
7,869.905 km
Eccentricity
0.0011
Inclination
82.5024°
RAAN
168.5353°
Arg. of periapsis
171.6428°
True anomaly
188.46518°
Mean anomaly
188.4838°
Eccentric anomaly
188.47449°
Mean motion
3.10877 °/min
Orbital period
115.8 mins
BSTAR
0.000060418
Loading maneuver chart data...
Computing Atmospheric mass density...
Loading historical data...
Loading historical data...
Loading historical data...
Loading historical data...
Loading historical data...
Loading historical data...
Loading historical data...
Other satellites on launch #273 in the year 2025 (2025-11-25 UTC)

Documentation

Showing up to 5 results
|